Torna al catalogo

WUHAN-1

AttivoScienzaSSO
NORAD 59810·PAYLOAD·🇨🇳 China
Questo nome del satellite non è ancora stato confermato da fonti ufficiali.

Lanciato May 21, 2024 da Jiuquan Satellite Launch Center

Loading…

Prossimi Passaggi (prossime 24 ore)

TLE

AggiornatoSource: Space-Track

Epoca: Sep 14, 2026, 22:35 UTC

1 59810U 24095A   26257.94104359  .00003205  00000-0  19965-3 0  9993
2 59810  97.5284 335.4684 0004460 114.8624 245.3069 15.10275546127693

Traccia WUHAN-1 in tempo reale con AllMySat

Download on the App Store